Location: Clarion
(42.7316°N, 93.7330°W)
Time: 09:41:33
(UTC+00:00)

SL-16 R/B - Pass Details

Date: 22 April 2026
Orbit: 839 x 849 km, 71.0° (Epoch: 17 May)

Event Time Altitude Azimuth Distance (km) Brightness Sun altitude
Rises 02:08:57 0° 184° (S) 3,378 5.1 -11.7°
Reaches altitude 10° 02:11:27 10° 179° (S) 2,449 4.3 -12.1°
Maximum altitude 02:16:47 46° 107° (ESE) 1,124 2.4 -13.0°
Drops below altitude 10° 02:22:10 10° 36° (NE) 2,472 4.6 -13.8°
Sets 02:24:42 0° 31° (NNE) 3,413 5.4 -14.2°
